Regional Weather Roundup
Issued by NWS

Home | Current Version | Previous Version | Graphics & Text | Print | Product List | Glossary On
Versions: 1 2 3 4 5 6 7 8 9 10 11 12 13 14 15 16 17 18 19 20 21 22 23 24 25 26 27 28 29 30 31 32 33 34 35 36 37 38 39 40 41 42 43 44 45 46 47 48 49 50
000
ASUS43 KDMX 190307
RWRIA

WEATHER ROUNDUP FOR IOWA
NATIONAL WEATHER SERVICE DES MOINES IA
900 PM CST THU DEC 18 2014

NOTE: "FAIR" INDICATES FEW OR NO CLOUDS BELOW 12,000 FEET WITH NO
SIGNIFICANT WEATHER AND/OR OBSTRUCTIONS TO VISIBILITY.

* - THESE STATIONS ARE NOT NWS STATIONS...THUS NOT UNDER NWS
QUALITY CONTROL.  THEY ALSO DO NOT REPORT WEATHER SUCH
AS PRECIPITATION OR FOG.

IAZ001>003-012>014-020>022-031>034-043>046-190400-
   NORTHWEST IOWA

CITY           SKY/WX    TMP DP  RH WIND       PRES   REMARKS
CARROLL *      CLOUDY    28  25  86 SE7       30.22F WCI  21
CHEROKEE *     CLOUDY    28  27  93 CALM      30.22S
DENISON *      CLOUDY    30  28  93 CALM      30.20S
LE MARS *      CLOUDY    30  27  86 S7        30.20F WCI  23
ORANGE CITY *  CLOUDY    28  23  80 SE3       30.19S
SHELDON *      CLOUDY    27  25  93 SE7       30.18F WCI  19
SIOUX CITY     CLOUDY    30  26  85 S7        30.21F WCI  23
SPENCER        CLOUDY    27  22  81 SE6       30.21S WCI  20
STORM LAKE *   CLOUDY    27  25  93 S6        30.21S WCI  20
$$

IAZ055>058-069>071-079>083-090>094-190400-
   SOUTHWEST IOWA

CITY           SKY/WX    TMP DP  RH WIND       PRES   REMARKS
ATLANTIC *     CLOUDY    30  27  86 SE3       30.23S
AUDUBON *      CLEAR     28  23  80 S5        30.23S WCI  23
CLARINDA *     CLOUDY    30  28  93 CALM      30.26S
COUNCIL BLFS * CLOUDY    30  30 100 SE5       30.21S WCI  25
CRESTON *      CLOUDY    28  28 100 SE6       30.23F WCI  22
HARLAN  *      CLOUDY    30  30 100 SE5       30.26S WCI  25
LAMONI         CLOUDY    29  25  85 CALM      30.24S
RED OAK *      CLOUDY    30  28  93 SE3       30.24S
SHENANDOAH *   CLOUDY    30  28  93 SE5       30.26R WCI  25
$$

IAZ047>049-059>061-072>074-084-190400-
   CENTRAL IOWA

CITY           SKY/WX    TMP DP  RH WIND       PRES   REMARKS
AMES           CLOUDY    27  20  75 SE5       30.26S WCI  22
ANKENY *       CLOUDY    27  23  86 SE7       30.26S WCI  19
CHARITON *     CLOUDY    28  25  86 CALM      30.26R
DES MOINES     CLOUDY    28  22  78 SE6       30.26S WCI  22
GRINNELL*      CLOUDY    25  21  86 CALM      30.26S
KNOXVILLE *    CLOUDY    27  23  86 CALM      30.26R
MARSHALLTOWN   CLOUDY    24  19  81 SE6       30.25S WCI  17
PELLA *        CLOUDY    27  23  86 CALM      30.28S
PERRY *        CLOUDY    28  25  86 SE6       30.25R WCI  22
$$

IAZ004>006-015-016-023>025-035-036-190400-
   NORTH CENTRAL IOWA

CITY           SKY/WX    TMP DP  RH WIND       PRES   REMARKS
ALGONA *       CLOUDY    25  23  93 SE6       30.23S WCI  18
CLARION *      CLOUDY    25  23  93 SE6       30.24F WCI  18
ESTHERVILLE    CLOUDY    24  20  84 S7        30.21S WCI  16
FORT DODGE *   CLOUDY    27  19  74 SE3       30.24S
MASON CITY     CLOUDY    23  18  81 S3        30.26S
FOREST CITY *  CLOUDY    27  19  74 SE5       30.23F WCI  21
IOWA FALLS *   CLOUDY    25  19  80 E5        30.26S WCI  19
$$

IAZ007>011-017>019-026>030-037>042-050>054-066-190400-
   NORTHEAST IOWA

CITY           SKY/WX    TMP DP  RH WIND       PRES   REMARKS
CEDAR RAPIDS   CLOUDY    24  19  81 CALM      30.26S
CHARLES CITY * CLOUDY    23  18  80 CALM      30.26S
CLINTON *      PTCLDY    16  12  86 CALM      30.30F
DECORAH *      CLOUDY    23  18  80 CALM      30.24S
DUBUQUE        CLOUDY    22  18  85 CALM      30.25F
MONTICELLO *   PTCLDY    19  18  93 CALM      30.26F
OELWEIN *      CLEAR     19  18  93 N3        30.26R
WATERLOO       CLOUDY    24  18  77 CALM      30.27R
$$

IAZ064-065-067-068-078-190400-
   EAST CENTRAL IOWA

CITY           SKY/WX    TMP DP  RH WIND       PRES   REMARKS
DAVENPORT      CLEAR     21  15  78 CALM      30.28S
IOWA CITY      CLOUDY    26  19  74 CALM      30.29F
MT. PLEASANT * CLOUDY    27  23  86 CALM      30.28S
MUSCATINE *    CLOUDY    28  19  69 NE3       30.30S
QUAD CITIES    CLEAR     25  17  72 CALM      30.29R
$$

IAZ062-063-075>077-085>089-095>099-190400-
   SOUTHEAST IOWA

CITY           SKY/WX    TMP DP  RH WIND       PRES   REMARKS
BURLINGTON     CLOUDY    28  21  75 CALM      30.28R
FAIRFIELD *    CLOUDY    27  23  86 CALM      30.28S
FORT MADISON * CLOUDY    28  25  86 CALM      30.29S
KEOKUK *       CLOUDY    28  23  80 CALM      30.28S
OSKALOOSA *    CLOUDY    27  23  86 CALM      30.27S
CENTERVILLE *  CLOUDY    27  27 100 SE3       30.27S
OTTUMWA        CLOUDY    26  22  84 CALM      30.27R
WASHINGTON *   CLOUDY    27  23  86 CALM      30.28S
$$

ABBREVIATIONS USED IN REMARKS
   TC - TEMPERATURES IN CELSIUS
  WCI - WIND CHILL INDEX
   HX - HEAT INDEX
  VSB - VISIBILITY
$$




USA.gov is the U.S. government's official web portal to all federal, state and local government web resources and services.